星链-36683(STARLINK-36683)

基本信息
目录编号:
100619
目录名称:
STARLINK-36683
国际标识:
2026-204E
轨道中心:
EARTH
卫星名称:
星链-36683
卫星全名:
星链-36683(STARLINK-36683)
卫星状态:
在轨 (已飞行5 天)
发射日期:
2026-09-06 UTC
国别 :
美国 (US)
星等 :
--
该卫星已列入 空间交会检测服务 Space Conjunction Data Service (SCDS) ,当前飞行风险评估等级: 无高风险
轨道信息
数据来源 国际轨道数据
星历时间: 2026-09-11T09:30:23+0800
11小时前
查看轨道信息
半长轴: 6647.639km
偏心率: 0.0005336
轨道倾角: 69.997°
近地点辐角 269.918°
升交点赤经 264.755°
平近点角 90.142°
近地点: 265.954km
远地点: 273.05km
周期: 89.900分钟
每日圈数: 16.017755
详细信息
固有亮度:
5
最大亮度:
2.5
卫星平台:
Starlink V1.0
覆盖范围:
全球
运营商:
太空探索技术公司
运营商所在国:
美国
制造商(研发单位):
太空探索技术公司
制造商所在国:
美国
使用方式:
暂无
卫星简介
Starlink 计划是 SpaceX 推出的全球卫星互联网项目,通过发射低轨道卫星,为全球尤其是偏远地区提供高速、低延迟的互联网服务。自 2019 年起,Starlink 已部署数千颗卫星,旨在缩小全球数字鸿沟,推动互联网普及。该项目还为军事、航空等行业提供通信支持,带来广泛经济效益。
2D轨道图
3D轨道图
轨道高度分析图
轨道倾角分析图
轨道综合分析图
查看轨道综合分析图
与全量物体交会距离演化趋势
与全量物体交会风险概率演化趋势